Brownsville, TX

8:09 AM CDT on July 25, 2017 (GMT -0500)
Brownsville-South Padre I International

Weather History for KBRO - April, 2014

Change the Weather History Date:

Monday, April 14, 2014

  Actual Average Record
Temperature  
Mean Temperature 73 °F 74 °F  
Max Temperature 87 °F 84 °F 96 °F (1929)
Min Temperature 58 °F 66 °F 38 °F (1980)
Degree Days  
Heating Degree Days 0 0  
Month to date heating degree days 0 6  
Since 1 July heating degree days 814 552  
Cooling Degree Days 8 10  
Month to date cooling degree days 135 123  
Year to date cooling degree days 378 438  
Growing Degree Days 24 (Base 50)    
Moisture  
Dew Point 67 °F    
Average Humidity 77    
Maximum Humidity 94    
Minimum Humidity 60    
Precipitation  
Precipitation T in 0.05 in 1.05 in (1964)
Month to date precipitation T 0.71  
Year to date precipitation 2.22 4.29  
Sea Level Pressure  
Sea Level Pressure 29.77 in    
Wind  
Wind Speed 15 mph (SE)    
Max Wind Speed 31 mph    
Max Gust Speed 44 mph    
Visibility 10 miles    
Events Rain    
T = Trace of Precipitation, MM = Missing Value Source: NWS Daily Summary

Daily Weather History Graph

Daily Weather History Graph

Search for Another Location

Airport or City:

Trip Planner

Search our weather history database for the weather conditions in past years. The results will help you decide how hot, cold, wet, or windy it might be!

Date:

Astronomy

Apr. 14, 2014 Rise Set
Actual Time 7:07 AM CDT 7:52 PM CDT
Civil Twilight 6:44 AM CDT 8:16 PM CDT
Nautical Twilight 6:16 AM CDT 8:43 PM CDT
Astronomical Twilight 5:48 AM CDT 9:12 PM CDT
Moon 7:33 PM CDT (4/14) 6:36 AM CDT (4/14)
Length of Visible Light 13h 32m
Length of Day
12h 45m
Full, 100% of the Moon is Illuminated
Apr 14
Full
Apr 15
Full
Apr 22
Last Quarter
Apr 29
New
May 6
First Quarter

Hourly Weather History & Observations

Time (CDT) Temp. Heat Index Dew Point Humidity Pressure Visibility Wind Dir Wind Speed Gust Speed Precip Events Conditions
12:05 AM 75.2 °F - 73.4 °F 94% 29.73 in 10.0 mi SSE 15.0 mph - N/A   Overcast
12:27 AM 75.2 °F - 73.4 °F 94% 29.72 in 10.0 mi SSE 13.8 mph - N/A   Overcast
12:53 AM 75.0 °F - 73.0 °F 94% 29.72 in 10.0 mi SSE 12.7 mph - N/A   Overcast
1:53 AM 75.0 °F - 73.0 °F 94% 29.71 in 10.0 mi SE 10.4 mph - N/A   Overcast
2:53 AM 75.0 °F - 73.0 °F 94% 29.69 in 10.0 mi SE 10.4 mph - N/A   Overcast
3:53 AM 75.0 °F - 73.0 °F 94% 29.66 in 10.0 mi SE 12.7 mph - N/A   Overcast
4:53 AM 75.0 °F - 73.0 °F 94% 29.66 in 10.0 mi SE 11.5 mph - N/A   Overcast
5:45 AM 75.2 °F - 73.4 °F 94% 29.66 in 10.0 mi SE 12.7 mph - N/A   Overcast
5:53 AM 75.0 °F - 73.0 °F 94% 29.66 in 10.0 mi SE 10.4 mph - N/A   Overcast
6:13 AM 75.2 °F - 73.4 °F 94% 29.66 in 10.0 mi SSE 15.0 mph 21.9 mph N/A   Overcast
6:18 AM 75.2 °F - 73.4 °F 94% 29.67 in 10.0 mi SSE 10.4 mph 21.9 mph N/A   Overcast
6:31 AM 75.2 °F - 73.4 °F 94% 29.67 in 10.0 mi SSE 9.2 mph - N/A   Overcast
6:43 AM 75.2 °F - 73.4 °F 94% 29.67 in 10.0 mi SSE 11.5 mph - N/A   Overcast
6:53 AM 75.0 °F - 73.0 °F 94% 29.67 in 10.0 mi SSE 9.2 mph - N/A   Overcast
7:39 AM 75.2 °F - 73.4 °F 94% 29.69 in 10.0 mi SE 8.1 mph - N/A   Overcast
7:53 AM 75.0 °F - 73.0 °F 94% 29.69 in 10.0 mi SSE 12.7 mph - N/A   Overcast
8:04 AM 75.2 °F - 73.4 °F 94% 29.69 in 10.0 mi SSE 10.4 mph - N/A   Overcast
8:53 AM 75.9 °F - 73.0 °F 91% 29.70 in 10.0 mi SSE 12.7 mph - N/A   Overcast
9:10 AM 77.0 °F - 73.4 °F 89% 29.70 in 10.0 mi SSE 13.8 mph - N/A   Overcast
9:50 AM 78.8 °F - 73.4 °F 83% 29.72 in 10.0 mi SSE 11.5 mph - N/A   Overcast
9:53 AM 78.1 °F - 73.0 °F 84% 29.72 in 10.0 mi SSE 12.7 mph - N/A   Overcast
10:53 AM 82.0 °F 87.4 °F 73.0 °F 74% 29.71 in 10.0 mi South 16.1 mph 21.9 mph N/A   Overcast
11:53 AM 84.0 °F 90.2 °F 73.0 °F 69% 29.71 in 10.0 mi South 16.1 mph 25.3 mph N/A   Overcast
12:53 PM 86.0 °F 93.0 °F 73.0 °F 65% 29.72 in 10.0 mi South 11.5 mph 21.9 mph N/A   Mostly Cloudy
1:23 PM 86.0 °F 93.4 °F 73.4 °F 66% 29.73 in 10.0 mi SSW 8.1 mph - N/A   Overcast
1:53 PM 84.9 °F 90.7 °F 72.0 °F 65% 29.73 in 10.0 mi SW 5.8 mph - N/A   Overcast
2:53 PM 87.1 °F 94.5 °F 73.0 °F 63% 29.74 in 10.0 mi NNW 10.4 mph - 0.00 in   Mostly Cloudy
3:53 PM 68.0 °F - 61.0 °F 78% 29.80 in 10.0 mi North 27.6 mph 43.7 mph N/A   Mostly Cloudy
4:09 PM 64.4 °F - 59.0 °F 83% 29.82 in 10.0 mi North 19.6 mph 40.3 mph 0.00 in Rain Light Rain
4:18 PM 64.4 °F - 57.2 °F 77% 29.83 in 10.0 mi North 26.5 mph 36.8 mph 0.00 in   Overcast
4:53 PM 64.0 °F - 55.0 °F 73% 29.85 in 10.0 mi North 23.0 mph 35.7 mph 0.00 in   Overcast
5:53 PM 61.0 °F - 52.0 °F 72% 29.88 in 10.0 mi North 24.2 mph 33.4 mph N/A   Overcast
6:53 PM 61.0 °F - 50.0 °F 67% 29.92 in 10.0 mi North 23.0 mph 31.1 mph N/A   Overcast
7:53 PM 60.1 °F - 46.9 °F 62% 29.97 in 10.0 mi North 17.3 mph 28.8 mph N/A   Overcast
8:53 PM 60.1 °F - 46.9 °F 62% 30.03 in 10.0 mi North 15.0 mph 24.2 mph N/A   Overcast
9:53 PM 60.1 °F - 48.0 °F 64% 30.08 in 10.0 mi North 13.8 mph 23.0 mph N/A   Overcast
10:53 PM 60.1 °F - 48.0 °F 64% 30.13 in 10.0 mi North 11.5 mph 21.9 mph N/A   Overcast
11:53 PM 57.9 °F - 46.9 °F 67% 30.15 in 10.0 mi NNW 12.7 mph - N/A   Clear